STARLINK-32784, 62607

Orbit data source: Space-Track

STARLINK-32784, 62607 is a payload satellite owned by SpaceX/Seattle (US) in LEO that was launched on Mon, 13 Jan 2025 UTC via an FALCON 9 launch vehicle from the Air Force Eastern Test Range (AFETR). Payload-class satellites include a variety of spacecraft equipped with specific instruments for various scientific and technological missions. These include communications satellites like Starlink; space stations such as the ISS; scientific satellites like the Hubble; Earth observation satellites from companies like Planet Labs, Umbra, and HawkEye 360; GPS; miniature CubeSats for education and research; and military/defense satellites.

Loading next visibility...
Identifier
62607, 2025-008W
Orbit
LEO
Country
Flag of USUS
Related business
Manufacturer
SpaceX/Seattle
Mission
Partially operational Commercial Communications
Bus & Motor
STARLINK V2M, Unknown motor
Mass
730 kg wet, ~700 kg dry
Launch date (UTC)
2025-01-13 (2 years ago)
Launch vehicle
FALCON 9
Launch site
Air Force Eastern Test Range (AFETR)
Object type
Payload
Rocket body
Debris
Shape & HBR
Box + 2 Pan, 17.7 m
Radar Cross Section
33.884 m², Large (>1 m²)

Expand to show TLE details & history
Last TLE update: 9 hours ago

TLE from 9 hours ago
0 STARLINK-32784
1 62607U 25008W   26236.43775165  .00170965  00000-0  14456-2 0  9993
2 62607  42.9853  19.5830 0029062 323.9797  35.9111 15.67891429 91630
Epoch: 2026-08-24T10:30Z
TLE epoch observation values (Epoch: 2026-08-24T10:30:21.742Z)
Latitude
-0.00001°
Longitude
-110.72706°
Altitude
348.856 km
Speed
7.711 km/s
True Right ascension
01h 18m 19s
True Declination
0° 00' 00"
Sunlit
Object was in full shadow at epoch
Visualization orbit readout
Latitude
Unknown
Longitude
Unknown
Altitude
Unknown
Speed
Unknown
Apparent Right ascension
Unknown
Apparent Declination
Unknown
Sunlit
N/A
Visualization observer readout
Local Sidereal Time
10:29:20
Azimuth
Unknown
Elevation
Unknown
Doppler factor
Unknown
Orbital elements
Apogee altitude
386.52 km
Perigee altitude
347.315 km
Semi-major axis
6,745.054 km
Eccentricity
0.00291
Inclination
42.9853°
RAAN
19.583°
Arg. of periapsis
323.9797°
True anomaly
36.10701°
Mean anomaly
35.9111°
Eccentric anomaly
36.009°
Mean motion
3.918 °/min
Orbital period
91.88 mins
BSTAR
0.0014456
Loading maneuver chart data...
Computing Atmospheric mass density...
Loading historical data...
Loading historical data...
Loading historical data...
Loading historical data...
Loading historical data...
Loading historical data...
Loading historical data...

Documentation

Showing up to 5 results
|